M I D A S
Marine Information and Data Acquisition System
Tripno 2121 of the Zeeleeuw from 2011-06-16 07:04:24 to 2011-06-16 16:24:50
Back to CruiseResearch ActivitiesStationsMapUnderway DataData graphs

EquipmentUnitsComments
TimeDGPSUTC
LatitudeDGPSDM.mWGS84
LongitudeDGPSDM.mWGS84
SpeedMeteo Stationm/sRelative wind speed
DirectionMeteo StationdegRelative wind direction
TemperatureMeteo Stationdeg CelciusAir temperature
PressureMeteo StationPaAtmospheric pressure
HumidityMeteo Station%Relative humidity
Missing or incorrect values are displayed as -999
Metereological data collected by the RV Zeeleeuw from 2011-06-16 06:53:31 to 2011-06-16 16:31:56
Time Latitude Longitude Speed Direction Temperature Pressure Humidity
2011-06-16 06:54 51°13.658 2°55.935 0.8 39 14.5 101030 45
2011-06-16 06:55 51°13.679 2°55.837 -999 35 14.6 101030 46
2011-06-16 06:56 51°13.693 2°55.753 -999 41 14.6 101030 45
2011-06-16 06:57 51°13.703 2°55.752 -999 35 14.6 101030 45
2011-06-16 06:58 51°13.687 2°55.733 0.2 35 14.6 101030 46
2011-06-16 06:59 51°13.746 2°55.705 -999 35 14.6 101030 46
2011-06-16 07:00 51°13.871 2°55.611 4.5 35 14.6 101030 46
2011-06-16 07:01 51°14.005 2°55.516 2.8 317 14.6 101030 47
2011-06-16 07:02 51°14.142 2°55.414 -999 321 14.7 101020 46
2011-06-16 07:03 51°14.284 2°55.305 -999 320 14.7 101020 46
2011-06-16 07:04 51°14.42 2°55.151 -999 35 14.6 101020 45
2011-06-16 07:05 51°14.553 2°54.964 -999 35 14.6 101010 44
2011-06-16 07:06 51°14.715 2°54.778 -999 35 14.6 101000 46
2011-06-16 07:07 51°14.889 2°54.586 -999 35 14.6 101000 45
2011-06-16 07:08 51°15.067 2°54.398 -999 35 14.7 101000 46
2011-06-16 07:09 51°15.235 2°54.183 -999 35 14.7 101000 46
2011-06-16 07:10 51°15.408 2°53.981 10.5 36 14.7 100990 46
2011-06-16 07:11 51°15.568 2°53.76 10.8 36 14.7 100990 46
2011-06-16 07:12 51°15.741 2°53.547 11.5 31 14.8 100990 45
2011-06-16 07:13 51°15.902 2°53.331 10.1 236 14.8 100980 44
2011-06-16 07:14 51°16.085 2°53.153 10.2 239 14.8 100990 45
2011-06-16 07:15 51°16.262 2°52.963 9.6 238 14.9 100990 46
2011-06-16 07:16 51°16.449 2°52.823 9.7 238 14.9 101000 45
2011-06-16 07:17 51°16.635 2°52.693 9.8 243 14.9 101000 45
2011-06-16 07:18 51°16.826 2°52.589 8.2 239 14.9 101000 45
2011-06-16 07:19 51°17.018 2°52.496 8.8 244 14.9 101010 46
2011-06-16 07:20 51°17.211 2°52.412 8 241 14.9 101000 46
2011-06-16 07:21 51°17.406 2°52.372 6.7 247 14.9 101010 44
2011-06-16 07:22 51°17.588 2°52.476 3.8 255 14.9 101020 44
2011-06-16 07:23 51°17.742 2°52.666 -999 258 14.9 101020 44
2011-06-16 07:24 51°17.887 2°52.872 -999 254 14.9 101020 45
2011-06-16 07:25 51°18.024 2°53.093 0.1 261 14.9 101030 45
2011-06-16 07:26 51°18.167 2°53.297 0.1 268 14.9 101020 47
2011-06-16 07:27 51°18.3 2°53.52 -999 268 15 101020 46
2011-06-16 07:28 51°18.441 2°53.728 -999 248 15 101020 45
2011-06-16 07:29 51°18.565 2°53.963 -999 38 15 101020 44
2011-06-16 07:30 51°18.673 2°54.215 -999 269 15 101020 45
2011-06-16 07:31 51°18.791 2°54.457 -999 35 15 101020 45
2011-06-16 07:32 51°18.911 2°54.695 -999 36 15 101020 45
2011-06-16 07:33 51°19.015 2°54.949 0.1 241 15 101020 45
2011-06-16 07:34 51°19.12 2°55.192 -999 35 15.1 101020 45
2011-06-16 07:35 51°19.239 2°55.423 -999 263 15.1 101020 45
2011-06-16 07:36 51°19.337 2°55.674 -999 25 15.1 101020 45
2011-06-16 07:37 51°19.41 2°55.955 -999 24 15.1 101020 45
2011-06-16 07:38 51°19.484 2°56.231 -999 27 15.1 101020 45
2011-06-16 07:39 51°19.568 2°56.495 -999 31 15.1 101020 45
2011-06-16 07:40 51°19.639 2°56.764 0.1 38 15.1 101010 45
2011-06-16 07:41 51°19.727 2°57.03 0.1 32 15.1 101020 45
2011-06-16 07:42 51°19.803 2°57.302 0.2 40 15.1 101010 45
2011-06-16 07:43 51°19.892 2°57.562 -999 37 15.1 101010 45
2011-06-16 07:44 51°19.978 2°57.824 -999 35 15.1 101010 45
2011-06-16 07:45 51°20.052 2°58.094 1.2 32 15.1 101010 45
2011-06-16 07:46 51°20.126 2°58.364 -999 43 15.1 101010 45
2011-06-16 07:47 51°20.211 2°58.625 -999 35 15 101010 45
2011-06-16 07:48 51°20.28 2°58.9 0.1 35 15 101010 45
2011-06-16 07:49 51°20.358 2°59.169 -999 32 15 101000 45
2011-06-16 07:50 51°20.44 2°59.438 0.1 34 15 101010 45
2011-06-16 07:51 51°20.495 2°59.727 0.7 23 15 101010 45
2011-06-16 07:52 51°20.559 3°0.006 0.1 32 15 101010 45
2011-06-16 07:53 51°20.618 3°0.3 0.3 26 15.1 101010 46
2011-06-16 07:54 51°20.686 3°0.581 3.1 28 15.2 101010 45
2011-06-16 07:55 51°20.741 3°0.866 1.7 36 15.1 101010 44
2011-06-16 07:56 51°20.808 3°1.151 0.1 30 15.1 101000 46
2011-06-16 07:57 51°20.873 3°1.44 -999 41 15.1 101010 45
2011-06-16 07:58 51°20.946 3°1.717 -999 36 15.1 101000 45
2011-06-16 07:59 51°21.009 3°2.002 -999 43 15 101010 45
2011-06-16 08:00 51°21.075 3°2.287 -999 26 15 101000 45
2011-06-16 08:01 51°21.136 3°2.575 -999 34 15.1 101010 45
2011-06-16 08:02 51°21.182 3°2.87 0.1 35 15.1 101010 45
2011-06-16 08:03 51°21.238 3°3.161 0.1 35 15.2 101010 46
2011-06-16 08:04 51°21.294 3°3.457 0.1 17 15.2 101000 43
2011-06-16 08:05 51°21.356 3°3.75 -999 32 15.2 101000 45
2011-06-16 08:06 51°21.411 3°4.045 0.1 29 15.3 101000 45
2011-06-16 08:07 51°21.455 3°4.343 0.2 39 15.3 101000 44
2011-06-16 08:08 51°21.508 3°4.631 0.2 29 15.3 101000 45
2011-06-16 08:09 51°21.545 3°4.928 2.8 32 15.3 101000 43
2011-06-16 08:10 51°21.592 3°5.218 1.1 36 15.3 101000 45
2011-06-16 08:11 51°21.644 3°5.506 1.4 27 15.2 101000 44
2011-06-16 08:12 51°21.68 3°5.803 -999 34 15.3 101000 45
2011-06-16 08:13 51°21.721 3°6.101 0.4 35 15.3 101010 44
2011-06-16 08:14 51°21.764 3°6.398 -999 20 15.3 101000 44
2011-06-16 08:15 51°21.801 3°6.7 -999 25 15.4 101000 45
2011-06-16 08:16 51°21.822 3°7.009 3.8 25 15.3 101000 45
2011-06-16 08:17 51°21.847 3°7.318 -999 23 15.3 101000 44
2011-06-16 08:18 51°21.828 3°7.63 5 16 15.3 101010 44
2011-06-16 08:19 51°21.831 3°7.859 -999 35 15.3 101000 44
2011-06-16 08:20 51°21.855 3°7.957 -999 35 15.3 101000 44
2011-06-16 08:21 51°21.861 3°8.019 6.2 36 15.4 101000 44
2011-06-16 08:22 51°21.843 3°8.102 5.4 22 15.4 101000 44
2011-06-16 08:23 51°21.761 3°8.222 7 8 15.5 100990 44
2011-06-16 08:24 51°21.68 3°8.269 6.7 3 15.5 100990 44
2011-06-16 08:25 51°21.604 3°8.278 6.1 351 15.5 100980 44
2011-06-16 08:26 51°21.532 3°8.273 8.4 352 15.4 100980 44
2011-06-16 08:27 51°21.463 3°8.243 8.2 341 15.4 100980 45
2011-06-16 08:28 51°21.402 3°8.182 8.1 330 15.3 100990 43
2011-06-16 08:29 51°21.356 3°8.092 7.2 317 15.3 100980 44
2011-06-16 08:30 51°21.331 3°7.982 9.8 37 15.3 100980 45
2011-06-16 08:31 51°21.314 3°7.87 9 35 15.3 100980 44
2011-06-16 08:32 51°21.298 3°7.757 8.7 35 15.4 100980 45
2011-06-16 08:33 51°21.282 3°7.645 7 39 15.4 100980 44
2011-06-16 08:34 51°21.264 3°7.535 8.6 36 15.4 100970 45
2011-06-16 08:35 51°21.248 3°7.428 8 316 15.3 100970 44
2011-06-16 08:36 51°21.23 3°7.322 8.2 319 15.4 100980 45
2011-06-16 08:37 51°21.21 3°7.216 9.2 31 15.4 100980 45
2011-06-16 08:38 51°21.191 3°7.11 10.1 35 15.4 100980 44
2011-06-16 08:39 51°21.171 3°7.004 8.7 319 15.4 100980 44
2011-06-16 08:40 51°21.152 3°6.897 9.8 317 15.4 100970 44
2011-06-16 08:41 51°21.134 3°6.79 7.7 315 15.4 100980 44
2011-06-16 08:42 51°21.117 3°6.681 9.5 35 15.4 100970 44
2011-06-16 08:43 51°21.1 3°6.572 9.4 316 15.3 100970 44
2011-06-16 08:44 51°21.08 3°6.464 8 315 15.3 100970 44
2011-06-16 08:45 51°21.057 3°6.356 8.6 316 15.4 100970 44
2011-06-16 08:46 51°21.031 3°6.249 8.2 318 15.4 100960 44
2011-06-16 08:47 51°21.002 3°6.144 7.3 324 15.4 100970 44
2011-06-16 08:48 51°20.968 3°6.041 7.5 325 15.5 100970 44
2011-06-16 08:49 51°20.934 3°5.935 4.1 323 15.5 100970 43
2011-06-16 08:50 51°20.901 3°5.829 7.3 320 15.6 100970 44
2011-06-16 08:51 51°20.871 3°5.724 6.8 322 15.6 100970 43
2011-06-16 08:52 51°20.84 3°5.617 7.4 321 15.5 100970 43
2011-06-16 08:53 51°20.812 3°5.51 8.4 320 15.6 100970 44
2011-06-16 08:54 51°20.785 3°5.405 7.4 319 15.5 100970 43
2011-06-16 08:55 51°20.758 3°5.303 7.9 320 15.6 100970 43
2011-06-16 08:56 51°20.741 3°5.199 7.2 35 15.6 100970 44
2011-06-16 08:57 51°20.745 3°5.099 7.2 237 15.6 100960 41
2011-06-16 08:58 51°20.763 3°5.008 7.9 247 15.6 100970 44
2011-06-16 08:59 51°20.793 3°4.93 8.1 256 15.7 100970 44
2011-06-16 09:00 51°20.832 3°4.889 6.4 270 15.7 100980 44
2011-06-16 09:01 51°20.868 3°4.896 2.4 32 15.7 100980 44
2011-06-16 09:02 51°20.88 3°4.955 4.8 36 15.7 100990 44
2011-06-16 09:03 51°20.875 3°4.992 5.6 37 15.7 100990 43
2011-06-16 09:04 51°20.865 3°5.016 5.7 39 15.6 100990 44
2011-06-16 09:05 51°20.852 3°5.029 8 30 15.7 100980 42
2011-06-16 09:06 51°20.829 3°5.066 5.3 28 15.6 100980 43
2011-06-16 09:07 51°20.802 3°5.159 4.7 33 15.6 100980 44
2011-06-16 09:08 51°20.788 3°5.307 4.3 35 15.7 100980 44
2011-06-16 09:09 51°20.803 3°5.465 4 37 15.7 100990 43
2011-06-16 09:10 51°20.83 3°5.624 3.1 40 15.6 100990 44
2011-06-16 09:11 51°20.853 3°5.783 4.3 40 15.7 100990 43
2011-06-16 09:12 51°20.869 3°5.944 0.1 42 15.6 100990 44
2011-06-16 09:13 51°20.884 3°6.103 4.4 40 15.7 100990 42
2011-06-16 09:14 51°20.904 3°6.26 3.7 42 15.7 100990 44
2011-06-16 09:15 51°20.925 3°6.414 -999 38 15.6 100990 44
2011-06-16 09:16 51°20.943 3°6.563 -999 40 15.7 100990 44
2011-06-16 09:17 51°20.956 3°6.712 -999 42 15.7 100990 44
2011-06-16 09:18 51°20.969 3°6.864 -999 45 15.7 100990 44
2011-06-16 09:19 51°20.99 3°7.013 -999 36 15.7 100990 43
2011-06-16 09:20 51°21.011 3°7.162 -999 45 15.7 100990 44
2011-06-16 09:21 51°21.027 3°7.317 -999 36 15.6 100990 42
2011-06-16 09:22 51°21.043 3°7.473 -999 36 15.6 101000 44
2011-06-16 09:23 51°21.065 3°7.627 -999 33 15.7 101000 44
2011-06-16 09:24 51°21.085 3°7.78 -999 34 15.7 101000 44
2011-06-16 09:25 51°21.097 3°7.938 -999 39 15.7 101000 43
2011-06-16 09:26 51°21.113 3°8.096 -999 43 15.6 101000 43
2011-06-16 09:27 51°21.135 3°8.251 -999 42 15.7 101000 44
2011-06-16 09:28 51°21.159 3°8.407 -999 40 15.6 101000 43
2011-06-16 09:29 51°21.175 3°8.568 -999 42 15.6 101000 42
2011-06-16 09:30 51°21.192 3°8.728 -999 43 15.6 101000 43
2011-06-16 09:31 51°21.216 3°8.885 -999 36 15.6 101000 43
2011-06-16 09:32 51°21.241 3°9.043 -999 45 15.7 101000 43
2011-06-16 09:33 51°21.267 3°9.199 -999 36 15.7 101000 43
2011-06-16 09:34 51°21.325 3°9.32 5.4 39 15.7 101000 43
2011-06-16 09:35 51°21.413 3°9.336 7.5 253 15.7 101010 44
2011-06-16 09:36 51°21.476 3°9.236 7.9 239 15.7 101000 43
2011-06-16 09:37 51°21.499 3°9.087 9.7 316 15.8 100980 41
2011-06-16 09:38 51°21.477 3°8.93 11.3 321 15.8 100980 43
2011-06-16 09:39 51°21.461 3°8.764 8.9 320 15.8 100970 44
2011-06-16 09:40 51°21.45 3°8.592 9.6 320 15.8 100960 43
2011-06-16 09:41 51°21.438 3°8.423 12.3 321 15.8 100970 43
2011-06-16 09:42 51°21.431 3°8.274 10.5 38 15.8 100960 43
2011-06-16 09:43 51°21.427 3°8.135 12 38 15.8 100970 43
2011-06-16 09:44 51°21.423 3°8 11 318 15.8 100960 43
2011-06-16 09:45 51°21.416 3°7.866 10.6 318 15.8 100960 41
2011-06-16 09:46 51°21.408 3°7.733 8.6 316 15.8 100970 43
2011-06-16 09:47 51°21.402 3°7.599 9.4 318 15.8 100960 43
2011-06-16 09:48 51°21.399 3°7.464 8.4 317 15.7 100960 43
2011-06-16 09:49 51°21.389 3°7.329 9.5 321 15.8 100960 43
2011-06-16 09:50 51°21.362 3°7.201 8.1 324 15.8 100960 43
2011-06-16 09:51 51°21.329 3°7.073 10.3 321 15.8 100960 43
2011-06-16 09:52 51°21.297 3°6.942 10 325 15.9 100960 43
2011-06-16 09:53 51°21.266 3°6.809 9 323 15.9 100970 42
2011-06-16 09:54 51°21.241 3°6.673 8.5 320 16 100970 43
2011-06-16 09:55 51°21.216 3°6.537 7.6 323 16 100970 43
2011-06-16 09:56 51°21.189 3°6.405 9.6 327 16 100970 43
2011-06-16 09:57 51°21.157 3°6.273 10.9 325 16.1 100970 43
2011-06-16 09:58 51°21.125 3°6.142 9.5 323 16.1 100970 43
2011-06-16 09:59 51°21.083 3°6.033 8.2 344 16.1 100980 43
2011-06-16 10:00 51°21.022 3°6.035 7.9 24 16.1 100980 43
2011-06-16 10:01 51°21.004 3°6.118 4.9 37 16 100990 43
2011-06-16 10:02 51°21.025 3°6.23 3.7 38 16 100990 44
2011-06-16 10:03 51°21.045 3°6.364 -999 36 16 100990 43
2011-06-16 10:04 51°21.06 3°6.506 -999 36 16 100990 43
2011-06-16 10:05 51°21.077 3°6.65 -999 36 16 100990 43
2011-06-16 10:06 51°21.1 3°6.792 -999 36 16 100990 43
2011-06-16 10:07 51°21.126 3°6.934 -999 36 16 100990 43
2011-06-16 10:08 51°21.15 3°7.077 -999 36 16 100990 43
2011-06-16 10:09 51°21.17 3°7.223 -999 36 16 100990 43
2011-06-16 10:10 51°21.191 3°7.368 -999 36 16.1 100990 44
2011-06-16 10:11 51°21.223 3°7.507 -999 36 16.2 100990 44
2011-06-16 10:12 51°21.305 3°7.63 5.9 259 16.4 101000 43
2011-06-16 10:13 51°21.48 3°7.681 5.5 247 16.5 100990 44
2011-06-16 10:14 51°21.683 3°7.738 6.5 250 16.6 100990 43
2011-06-16 10:15 51°21.89 3°7.754 6 247 16.6 100980 43
2011-06-16 10:16 51°22.098 3°7.753 6.9 245 16.6 100980 43
2011-06-16 10:17 51°22.296 3°7.755 5.7 247 16.6 100970 43
2011-06-16 10:18 51°22.472 3°7.711 7.9 244 16.7 100990 43
2011-06-16 10:19 51°22.639 3°7.613 3.7 247 16.7 100970 42
2011-06-16 10:20 51°22.798 3°7.523 7.9 244 16.6 100970 42
2011-06-16 10:21 51°22.947 3°7.447 8.5 246 16.7 100970 42
2011-06-16 10:22 51°23.098 3°7.376 8.7 245 16.7 100970 43
2011-06-16 10:23 51°23.256 3°7.329 8.5 245 16.6 100980 42
2011-06-16 10:24 51°23.417 3°7.323 6.8 245 16.6 100980 43
2011-06-16 10:25 51°23.59 3°7.372 6.8 243 16.5 100980 42
2011-06-16 10:26 51°23.795 3°7.424 7.1 244 16.3 100980 42
2011-06-16 10:27 51°24 3°7.475 7.1 245 16.3 100970 42
2011-06-16 10:28 51°24.206 3°7.507 7.6 241 16.2 100980 43
2011-06-16 10:29 51°24.408 3°7.546 7.1 245 16.1 100980 43
2011-06-16 10:30 51°24.565 3°7.577 7.3 258 16.1 100970 43
2011-06-16 10:31 51°24.632 3°7.666 0.3 37 16.1 100990 42
2011-06-16 10:32 51°24.634 3°7.825 -999 36 16 100990 43
2011-06-16 10:33 51°24.625 3°8.005 -999 40 16 100990 43
2011-06-16 10:34 51°24.616 3°8.181 -999 36 15.9 100990 44
2011-06-16 10:35 51°24.606 3°8.346 -999 36 15.9 100980 43
2011-06-16 10:36 51°24.597 3°8.507 -999 36 15.9 100990 44
2011-06-16 10:37 51°24.585 3°8.669 -999 36 15.8 100980 43
2011-06-16 10:38 51°24.569 3°8.83 -999 42 15.8 100980 43
2011-06-16 10:39 51°24.557 3°8.991 -999 36 15.7 100980 44
2011-06-16 10:40 51°24.566 3°9.146 -999 36 15.8 100980 44
2011-06-16 10:41 51°24.589 3°9.297 -999 36 15.8 100990 43
2011-06-16 10:42 51°24.605 3°9.454 2.8 33 15.7 100990 44
2011-06-16 10:43 51°24.613 3°9.615 3 32 16 100990 44
2011-06-16 10:44 51°24.62 3°9.777 -999 35 16.4 100990 44
2011-06-16 10:45 51°24.626 3°9.94 -999 36 16.6 100980 43
2011-06-16 10:46 51°24.635 3°10.103 -999 36 16.7 100990 43
2011-06-16 10:47 51°24.654 3°10.26 -999 36 16.8 100990 43
2011-06-16 10:48 51°24.708 3°10.349 8.2 254 16.7 100990 43
2011-06-16 10:49 51°24.769 3°10.354 9.7 240 16.4 100980 43
2011-06-16 10:50 51°24.805 3°10.301 8.3 317 16.3 100970 43
2011-06-16 10:51 51°24.818 3°10.221 7.8 326 16.2 100970 43
2011-06-16 10:52 51°24.818 3°10.13 7.8 325 16.1 100970 43
2011-06-16 10:53 51°24.82 3°10.033 11.7 322 15.9 100980 43
2011-06-16 10:54 51°24.82 3°9.935 10.4 327 15.8 100980 44
2011-06-16 10:55 51°24.817 3°9.834 10.5 328 15.8 100980 44
2011-06-16 10:56 51°24.813 3°9.735 9.4 329 15.7 100980 44
2011-06-16 10:57 51°24.808 3°9.634 7.6 326 15.7 100980 44
2011-06-16 10:58 51°24.809 3°9.537 10.2 324 15.7 100980 44
2011-06-16 10:59 51°24.81 3°9.441 10.6 326 15.7 100980 44
2011-06-16 11:00 51°24.808 3°9.345 8.5 325 15.6 100980 44
2011-06-16 11:01 51°24.802 3°9.249 10.4 327 15.6 100970 44
2011-06-16 11:02 51°24.801 3°9.158 10 324 15.5 100970 44
2011-06-16 11:03 51°24.8 3°9.068 8.9 328 15.5 100980 44
2011-06-16 11:04 51°24.798 3°8.976 7.7 328 15.6 100980 44
2011-06-16 11:05 51°24.792 3°8.883 9.5 329 15.5 100980 44
2011-06-16 11:06 51°24.789 3°8.79 9.3 325 15.5 100980 44
2011-06-16 11:07 51°24.789 3°8.702 11.4 326 15.4 100980 44
2011-06-16 11:08 51°24.785 3°8.615 10.7 328 15.4 100980 43
2011-06-16 11:09 51°24.767 3°8.518 7.7 330 15.3 100990 44
2011-06-16 11:10 51°24.743 3°8.402 9.1 330 15.4 100990 43
2011-06-16 11:11 51°24.723 3°8.282 8.5 325 15.3 100980 44
2011-06-16 11:12 51°24.705 3°8.161 9.4 325 15.2 100980 44
2011-06-16 11:13 51°24.691 3°8.04 10.1 324 15.2 100980 44
2011-06-16 11:14 51°24.678 3°7.92 10.2 324 15.2 100980 44
2011-06-16 11:15 51°24.659 3°7.802 5.1 330 15.2 100980 44
2011-06-16 11:16 51°24.64 3°7.685 10.9 321 15.2 100980 44
2011-06-16 11:17 51°24.628 3°7.567 9.8 321 15.2 100970 44
2011-06-16 11:18 51°24.616 3°7.451 10.6 324 15.2 100970 44
2011-06-16 11:19 51°24.601 3°7.334 7.4 324 15.1 100970 44
2011-06-16 11:20 51°24.584 3°7.218 8.8 325 15.1 100970 44
2011-06-16 11:21 51°24.566 3°7.101 4.4 323 15.1 100980 45
2011-06-16 11:22 51°24.553 3°6.987 8.2 321 15.1 100970 44
2011-06-16 11:23 51°24.545 3°6.873 8.2 321 15 100970 44
2011-06-16 11:24 51°24.531 3°6.759 8 321 15 100960 45
2011-06-16 11:25 51°24.515 3°6.646 7.4 322 15.1 100970 44
2011-06-16 11:26 51°24.504 3°6.531 9.1 322 15 100960 45
2011-06-16 11:27 51°24.497 3°6.418 8.5 321 15 100960 44
2011-06-16 11:28 51°24.489 3°6.305 4.3 322 15 100960 45
2011-06-16 11:29 51°24.477 3°6.192 4 320 15 100960 44
2011-06-16 11:30 51°24.49 3°6.08 9.7 315 15 100960 44
2011-06-16 11:31 51°24.52 3°5.973 7.3 32 15 100960 44
2011-06-16 11:32 51°24.594 3°5.919 5.7 247 15.1 100960 44
2011-06-16 11:33 51°24.688 3°5.971 1.6 31 15.1 100970 45
2011-06-16 11:34 51°24.722 3°6.149 2.2 40 15.1 100970 43
2011-06-16 11:35 51°24.728 3°6.362 2.8 32 15.1 100960 44
2011-06-16 11:36 51°24.732 3°6.582 2.6 33 15.1 100970 44
2011-06-16 11:37 51°24.737 3°6.805 3.6 27 15.1 100960 44
2011-06-16 11:38 51°24.799 3°7.011 4.2 259 15.1 100960 45
2011-06-16 11:39 51°24.945 3°7.001 7.6 239 15.2 100960 44
2011-06-16 11:40 51°25.137 3°6.943 6.4 237 15.2 100940 45
2011-06-16 11:41 51°25.346 3°6.939 9.8 244 15.2 100950 44
2011-06-16 11:42 51°25.558 3°6.94 7.2 240 15.1 100950 44
2011-06-16 11:43 51°25.769 3°6.935 7.4 245 15.2 100940 44
2011-06-16 11:44 51°25.981 3°6.926 7.5 242 15.1 100950 44
2011-06-16 11:45 51°26.193 3°6.92 6 248 15.2 100950 44
2011-06-16 11:46 51°26.407 3°6.922 7.3 240 15.2 100940 44
2011-06-16 11:47 51°26.618 3°6.91 5.8 241 15.2 100940 44
2011-06-16 11:48 51°26.831 3°6.903 6 237 15.2 100940 42
2011-06-16 11:49 51°27.043 3°6.9 5.9 244 15.3 100940 44
2011-06-16 11:50 51°27.191 3°6.906 5.3 255 15.3 100940 45
2011-06-16 11:51 51°27.285 3°6.977 3.7 37 15.3 100950 45
2011-06-16 11:52 51°27.363 3°7.072 4.8 32 15.3 100950 46
2011-06-16 11:53 51°27.439 3°7.157 4.3 270 15.2 100950 45
2011-06-16 11:54 51°27.515 3°7.238 4.8 270 15.3 100950 45
2011-06-16 11:55 51°27.589 3°7.324 3.2 33 15.2 100950 45
2011-06-16 11:56 51°27.658 3°7.432 0.2 35 15.2 100940 43
2011-06-16 11:57 51°27.724 3°7.55 -999 36 15.3 100940 44
2011-06-16 11:58 51°27.789 3°7.666 -999 35 15.3 100950 45
2011-06-16 11:59 51°27.849 3°7.782 -999 36 15.1 100950 43
2011-06-16 12:00 51°27.902 3°7.905 3.1 38 15.2 100940 44
2011-06-16 12:01 51°27.951 3°8.033 3.6 33 15.2 100940 44
2011-06-16 12:02 51°28.002 3°8.16 2.9 38 15.2 100940 42
2011-06-16 12:03 51°28.054 3°8.284 3.3 37 15.5 100950 43
2011-06-16 12:04 51°28.085 3°8.424 4.7 33 15.5 100940 41
2011-06-16 12:05 51°28.075 3°8.558 6.4 14 15.4 100940 43
2011-06-16 12:06 51°28.041 3°8.658 7.2 360 15.3 100930 43
2011-06-16 12:07 51°27.996 3°8.711 8.2 345 15.3 100910 43
2011-06-16 12:08 51°27.961 3°8.68 7.5 324 15.3 100920 42
2011-06-16 12:09 51°27.931 3°8.569 9.8 329 15.4 100920 43
2011-06-16 12:10 51°27.872 3°8.454 9.3 332 15.4 100920 43
2011-06-16 12:11 51°27.814 3°8.35 8.5 331 15.4 100920 42
2011-06-16 12:12 51°27.764 3°8.259 7.1 332 15.4 100920 41
2011-06-16 12:13 51°27.722 3°8.167 8.9 328 15.4 100920 43
2011-06-16 12:14 51°27.683 3°8.076 10.4 329 15.4 100920 43
2011-06-16 12:15 51°27.639 3°7.989 7.2 331 15.4 100920 42
2011-06-16 12:16 51°27.592 3°7.906 7.4 331 15.4 100920 42
2011-06-16 12:17 51°27.549 3°7.821 8 329 15.5 100930 42
2011-06-16 12:18 51°27.511 3°7.732 8.4 330 15.5 100920 42
2011-06-16 12:19 51°27.473 3°7.644 9.8 330 15.5 100920 43
2011-06-16 12:20 51°27.43 3°7.559 8.5 333 15.6 100920 40
2011-06-16 12:21 51°27.385 3°7.477 7 332 15.5 100920 42
2011-06-16 12:22 51°27.344 3°7.39 9.3 330 15.5 100920 43
2011-06-16 12:23 51°27.305 3°7.303 9.5 332 15.5 100920 42
2011-06-16 12:24 51°27.265 3°7.215 9.1 331 15.6 100930 42
2011-06-16 12:25 51°27.221 3°7.131 4.4 332 15.6 100930 42
2011-06-16 12:26 51°27.179 3°7.045 11.6 331 15.6 100940 42
2011-06-16 12:27 51°27.143 3°6.956 10.2 332 15.6 100920 42
2011-06-16 12:28 51°27.105 3°6.866 9.5 331 15.6 100920 40
2011-06-16 12:29 51°27.062 3°6.782 9.8 334 15.7 100920 42
2011-06-16 12:30 51°27.021 3°6.696 10.6 336 15.7 100920 41
2011-06-16 12:31 51°26.984 3°6.602 4.5 332 15.8 100920 42
2011-06-16 12:32 51°26.946 3°6.508 4.2 331 15.8 100920 42
2011-06-16 12:33 51°26.907 3°6.417 11.7 331 15.7 100930 41
2011-06-16 12:34 51°26.867 3°6.328 10.8 334 15.7 100920 42
2011-06-16 12:35 51°26.828 3°6.241 11.4 334 15.7 100920 42
2011-06-16 12:36 51°26.814 3°6.142 8.7 317 15.7 100930 40
2011-06-16 12:37 51°26.887 3°6.089 8.5 259 15.8 100920 42
2011-06-16 12:38 51°26.979 3°6.169 3.3 34 15.9 100940 43
2011-06-16 12:39 51°27.045 3°6.311 -999 36 16 100940 42
2011-06-16 12:40 51°27.112 3°6.444 -999 36 16.1 100940 42
2011-06-16 12:41 51°27.182 3°6.57 -999 36 16 100940 42
2011-06-16 12:42 51°27.248 3°6.699 -999 36 16 100930 42
2011-06-16 12:43 51°27.313 3°6.828 -999 25 16 100930 42
2011-06-16 12:44 51°27.377 3°6.96 -999 36 16 100930 40
2011-06-16 12:45 51°27.439 3°7.094 -999 36 16 100930 42
2011-06-16 12:46 51°27.5 3°7.228 -999 36 16 100930 42
2011-06-16 12:47 51°27.561 3°7.362 -999 36 16 100930 42
2011-06-16 12:48 51°27.624 3°7.49 -999 36 16.1 100930 42
2011-06-16 12:49 51°27.69 3°7.618 -999 36 16.1 100930 42
2011-06-16 12:50 51°27.754 3°7.746 -999 36 16.1 100930 42
2011-06-16 12:51 51°27.815 3°7.879 -999 36 16.1 100930 42
2011-06-16 12:52 51°27.876 3°8.014 -999 36 16.1 100930 41
2011-06-16 12:53 51°27.937 3°8.147 -999 36 16.1 100940 42
2011-06-16 12:54 51°28 3°8.277 -999 36 16 100940 42
2011-06-16 12:55 51°28.065 3°8.405 -999 36 15.9 100930 42
2011-06-16 12:56 51°28.121 3°8.535 -999 43 16 100930 42
2011-06-16 12:57 51°28.121 3°8.656 -999 16 16 100920 43
2011-06-16 12:58 51°28.086 3°8.708 7.6 350 16 100910 43
2011-06-16 12:59 51°28.059 3°8.666 8.6 328 16 100920 42
2011-06-16 13:00 51°28.022 3°8.589 7.7 339 16 100920 42
2011-06-16 13:01 51°27.964 3°8.524 8.1 339 16 100920 42
2011-06-16 13:02 51°27.906 3°8.45 9.2 335 16 100910 42
2011-06-16 13:03 51°27.849 3°8.373 7.7 337 16 100920 42
2011-06-16 13:04 51°27.798 3°8.267 9.9 328 16.1 100910 43
2011-06-16 13:05 51°27.839 3°8.079 9.3 34 16 100890 42
2011-06-16 13:06 51°27.966 3°7.878 11.2 34 16 100890 42
2011-06-16 13:07 51°28.1 3°7.626 5.4 316 16 100890 43
2011-06-16 13:08 51°28.218 3°7.356 10.7 38 16.1 100880 41
2011-06-16 13:09 51°28.338 3°7.087 10.4 316 16.1 100890 43
2011-06-16 13:10 51°28.461 3°6.822 10.5 317 16.1 100890 42
2011-06-16 13:11 51°28.593 3°6.572 8.5 318 16.1 100890 42
2011-06-16 13:12 51°28.752 3°6.359 9.6 31 16 100870 41
2011-06-16 13:13 51°28.922 3°6.16 11.9 34 16 100880 43
2011-06-16 13:14 51°29.092 3°5.959 11 39 16 100890 42
2011-06-16 13:15 51°29.259 3°5.754 11.5 36 16 100880 42
2011-06-16 13:16 51°29.42 3°5.545 5.6 315 15.9 100890 42
2011-06-16 13:17 51°29.579 3°5.333 10 38 15.9 100880 42
2011-06-16 13:18 51°29.701 3°5.083 12.2 318 15.9 100880 42
2011-06-16 13:19 51°29.796 3°4.81 10.7 321 15.9 100880 42
2011-06-16 13:20 51°29.897 3°4.539 9.3 320 15.9 100880 43
2011-06-16 13:21 51°29.995 3°4.265 6 321 16 100890 43
2011-06-16 13:22 51°30.066 3°3.977 11 322 15.9 100880 42
2011-06-16 13:23 51°30.142 3°3.688 12.5 318 15.9 100880 42
2011-06-16 13:24 51°30.17 3°3.391 6.7 327 15.9 100880 42
2011-06-16 13:25 51°30.139 3°3.097 6.1 328 15.8 100880 42
2011-06-16 13:26 51°30.108 3°2.805 6.2 329 15.8 100870 42
2011-06-16 13:27 51°30.099 3°2.511 12 327 15.8 100880 43
2011-06-16 13:28 51°30.094 3°2.221 13.2 327 15.8 100880 42
2011-06-16 13:29 51°30.085 3°1.934 13.1 325 15.8 100880 43
2011-06-16 13:30 51°30.069 3°1.651 13.1 328 15.8 100870 43
2011-06-16 13:31 51°30.062 3°1.365 12.9 325 15.7 100880 43
2011-06-16 13:32 51°30.058 3°1.081 15.8 327 15.7 100880 41
2011-06-16 13:33 51°30.042 3°0.801 15.4 328 15.7 100890 43
2011-06-16 13:34 51°30.033 3°0.52 14.4 327 15.7 100880 43
2011-06-16 13:35 51°30.027 3°0.237 14.6 328 15.6 100890 42
2011-06-16 13:36 51°30.014 2°59.957 15.9 329 15.7 100890 43
2011-06-16 13:37 51°29.993 2°59.81 11.3 339 15.6 100890 43
2011-06-16 13:38 51°29.959 2°59.767 9.4 341 15.6 100910 43
2011-06-16 13:39 51°29.934 2°59.72 8.5 336 15.6 100900 43
2011-06-16 13:40 51°29.91 2°59.643 9.9 337 15.6 100900 43
2011-06-16 13:41 51°29.878 2°59.567 9.9 339 15.6 100890 43
2011-06-16 13:42 51°29.837 2°59.499 10.7 340 15.6 100890 43
2011-06-16 13:43 51°29.793 2°59.434 8.2 339 15.7 100900 43
2011-06-16 13:44 51°29.753 2°59.364 9.1 337 15.7 100890 43
2011-06-16 13:45 51°29.716 2°59.289 11.3 338 15.8 100900 43
2011-06-16 13:46 51°29.676 2°59.22 9.8 340 15.8 100890 43
2011-06-16 13:47 51°29.631 2°59.156 11.6 339 15.8 100890 43
2011-06-16 13:48 51°29.59 2°59.09 11 339 15.8 100890 43
2011-06-16 13:49 51°29.553 2°59.02 11.9 338 15.8 100900 43
2011-06-16 13:50 51°29.516 2°58.949 12.5 339 15.8 100900 43
2011-06-16 13:51 51°29.476 2°58.884 11.6 340 15.7 100890 42
2011-06-16 13:52 51°29.434 2°58.819 11.2 341 15.9 100900 43
2011-06-16 13:53 51°29.392 2°58.753 11.5 337 15.8 100890 43
2011-06-16 13:54 51°29.354 2°58.677 13.7 336 15.8 100900 43
2011-06-16 13:55 51°29.316 2°58.603 10.4 343 15.8 100890 43
2011-06-16 13:56 51°29.272 2°58.533 11.2 337 15.8 100900 44
2011-06-16 13:57 51°29.228 2°58.464 10.9 340 15.7 100910 44
2011-06-16 13:58 51°29.188 2°58.392 12.1 340 15.6 100900 43
2011-06-16 13:59 51°29.148 2°58.315 12.7 340 15.6 100910 44
2011-06-16 14:00 51°29.108 2°58.238 7.4 341 15.6 100910 44
2011-06-16 14:01 51°29.068 2°58.164 15.4 338 15.5 100900 43
2011-06-16 14:02 51°29.024 2°58.095 6.7 340 15.5 100900 43
2011-06-16 14:03 51°28.984 2°58.023 15.3 338 15.5 100910 43
2011-06-16 14:04 51°28.944 2°57.948 16.1 339 15.5 100910 43
2011-06-16 14:05 51°28.905 2°57.872 14.9 340 15.4 100910 43
2011-06-16 14:06 51°28.887 2°57.781 13.7 323 15.5 100920 43
2011-06-16 14:07 51°28.953 2°57.709 9.3 250 15.4 100900 43
2011-06-16 14:08 51°29.064 2°57.768 7.6 35 15.4 100970 43
2011-06-16 14:09 51°29.157 2°57.914 8.5 40 15.4 100950 42
2011-06-16 14:10 51°29.245 2°58.066 7.5 39 15.3 100950 43
2011-06-16 14:11 51°29.332 2°58.221 7.7 39 15.4 100960 43
2011-06-16 14:12 51°29.416 2°58.377 4.9 32 15.4 100950 43
2011-06-16 14:13 51°29.497 2°58.537 4.7 34 15.4 100950 42
2011-06-16 14:14 51°29.579 2°58.696 5.7 31 15.4 100950 43
2011-06-16 14:15 51°29.656 2°58.834 6.2 35 15.4 100960 43
2011-06-16 14:16 51°29.727 2°58.953 6.1 35 15.5 100960 42
2011-06-16 14:17 51°29.793 2°59.067 7.7 33 15.5 100960 42
2011-06-16 14:18 51°29.856 2°59.176 8.9 34 15.5 100960 43
2011-06-16 14:19 51°29.915 2°59.286 8 32 15.4 100960 43
2011-06-16 14:20 51°29.974 2°59.395 5.4 33 15.4 100960 43
2011-06-16 14:21 51°30.031 2°59.508 5.8 38 15.4 100960 42
2011-06-16 14:22 51°30.087 2°59.621 7 34 15.5 100950 42
2011-06-16 14:23 51°30.144 2°59.733 7.2 39 15.5 100960 43
2011-06-16 14:24 51°30.203 2°59.842 8.3 39 15.5 100960 43
2011-06-16 14:25 51°30.265 2°59.949 7.6 31 15.5 100950 42
2011-06-16 14:26 51°30.327 3°0.057 9.8 38 15.6 100950 43
2011-06-16 14:27 51°30.388 3°0.167 7.6 39 15.5 100970 42
2011-06-16 14:28 51°30.447 3°0.282 8.5 36 15.6 100960 42
2011-06-16 14:29 51°30.505 3°0.399 6.1 38 15.6 100950 42
2011-06-16 14:30 51°30.532 3°0.526 9.6 34 15.5 100930 42
2011-06-16 14:31 51°30.522 3°0.628 11.5 11 15.5 100910 42
2011-06-16 14:32 51°30.497 3°0.678 13.1 351 15.5 100920 42
2011-06-16 14:33 51°30.464 3°0.67 10.9 343 15.3 100910 42
2011-06-16 14:34 51°30.425 3°0.61 15.7 338 15.3 100920 43
2011-06-16 14:35 51°30.381 3°0.536 14.4 338 15.3 100920 42
2011-06-16 14:36 51°30.336 3°0.45 13 333 15.4 100920 42
2011-06-16 14:37 51°30.294 3°0.357 15.2 336 15.3 100920 42
2011-06-16 14:38 51°30.252 3°0.263 16.7 338 15.3 100920 42
2011-06-16 14:39 51°30.203 3°0.179 14.4 345 15.3 100910 42
2011-06-16 14:40 51°30.156 3°0.095 13.2 338 15.3 100900 42
2011-06-16 14:41 51°30.109 3°0.008 15.4 340 15.3 100910 42
2011-06-16 14:42 51°30.063 2°59.921 15.6 338 15.3 100900 42
2011-06-16 14:43 51°30.022 2°59.832 12.7 339 15.4 100910 42
2011-06-16 14:44 51°29.976 2°59.738 17.4 338 15.5 100910 42
2011-06-16 14:45 51°29.879 2°59.547 20.1 336 15.5 100900 43
2011-06-16 14:46 51°29.719 2°59.455 17.6 353 15.4 100890 42
2011-06-16 14:47 51°29.535 2°59.433 14.5 350 15.4 100890 42
2011-06-16 14:48 51°29.359 2°59.374 17.7 350 15.4 100890 42
2011-06-16 14:49 51°29.189 2°59.282 16.7 348 15.3 100900 42
2011-06-16 14:50 51°29.023 2°59.172 7.9 345 15.2 100910 43
2011-06-16 14:51 51°28.856 2°59.069 16.5 348 15.2 100910 42
2011-06-16 14:52 51°28.684 2°58.971 15.8 347 15.2 100910 43
2011-06-16 14:53 51°28.513 2°58.869 15.6 347 15.2 100900 42
2011-06-16 14:54 51°28.344 2°58.764 22 347 15.2 100900 43
2011-06-16 14:55 51°28.173 2°58.662 16.4 348 15.3 100910 43
2011-06-16 14:56 51°28 2°58.562 20.4 346 15.2 100910 42
2011-06-16 14:57 51°27.827 2°58.459 15.3 347 15.2 100900 42
2011-06-16 14:58 51°27.655 2°58.338 16.3 347 15.3 100910 42
2011-06-16 14:59 51°27.482 2°58.231 12 349 15.2 100890 42
2011-06-16 15:00 51°27.307 2°58.125 14.3 349 15.3 100910 43
2011-06-16 15:01 51°27.132 2°58.017 22.6 348 15.2 100900 42
2011-06-16 15:02 51°26.962 2°57.902 9.2 347 15.2 100920 43
2011-06-16 15:03 51°26.791 2°57.788 9.3 346 15.2 100910 43
2011-06-16 15:04 51°26.617 2°57.684 21.6 348 15.1 100920 42
2011-06-16 15:05 51°26.445 2°57.58 9.9 344 15 100920 42
2011-06-16 15:06 51°26.277 2°57.47 12.6 345 15 100910 43
2011-06-16 15:07 51°26.109 2°57.362 8.9 346 15.1 100920 43
2011-06-16 15:08 51°25.939 2°57.259 8.3 347 15.1 100920 43
2011-06-16 15:09 51°25.769 2°57.153 16.6 344 15.2 100930 43
2011-06-16 15:10 51°25.601 2°57.048 22.7 347 15.1 100920 42
2011-06-16 15:11 51°25.432 2°56.948 19.7 348 15 100920 43
2011-06-16 15:12 51°25.261 2°56.845 22 345 15 100910 43
2011-06-16 15:13 51°25.088 2°56.736 19 349 15 100930 43
2011-06-16 15:14 51°24.915 2°56.629 17.3 347 15 100930 42
2011-06-16 15:15 51°24.744 2°56.52 9.6 347 15 100910 43
2011-06-16 15:16 51°24.569 2°56.413 15.6 352 15 100940 43
2011-06-16 15:17 51°24.394 2°56.308 22.2 349 14.9 100930 43
2011-06-16 15:18 51°24.222 2°56.192 14.9 351 14.9 100930 42
2011-06-16 15:19 51°24.049 2°56.077 22.6 350 15 100930 43
2011-06-16 15:20 51°23.874 2°55.968 15 349 14.9 100940 43
2011-06-16 15:21 51°23.704 2°55.854 19.5 347 14.9 100940 42
2011-06-16 15:22 51°23.533 2°55.743 17.8 350 15 100940 43
2011-06-16 15:23 51°23.359 2°55.634 7.6 348 15 100940 43
2011-06-16 15:24 51°23.187 2°55.516 2.1 351 15 100930 43
2011-06-16 15:25 51°23.01 2°55.412 8 357 15 100920 43
2011-06-16 15:26 51°22.83 2°55.299 18.7 358 14.9 100940 43
2011-06-16 15:27 51°22.655 2°55.182 11.2 355 14.7 100950 42
2011-06-16 15:28 51°22.475 2°55.063 17.8 354 14.7 100960 43
2011-06-16 15:29 51°22.296 2°54.958 16.8 358 14.7 100960 43
2011-06-16 15:30 51°22.113 2°54.847 6.8 357 14.6 100950 42
2011-06-16 15:31 51°21.934 2°54.73 9.2 357 14.6 100970 43
2011-06-16 15:32 51°21.754 2°54.617 8.8 355 14.5 100970 42
2011-06-16 15:33 51°21.575 2°54.5 21.2 355 14.5 100960 43
2011-06-16 15:34 51°21.394 2°54.382 19.7 355 14.5 100970 42
2011-06-16 15:35 51°21.212 2°54.27 13.7 354 14.5 100970 42
2011-06-16 15:36 51°21.031 2°54.165 12.7 352 14.4 100980 42
2011-06-16 15:37 51°20.854 2°54.055 20.3 356 14.4 100970 42
2011-06-16 15:38 51°20.677 2°53.944 6.1 359 14.1 100980 42
2011-06-16 15:39 51°20.498 2°53.835 18 358 14 101000 43
2011-06-16 15:40 51°20.314 2°53.74 5.9 356 13.9 101010 42
2011-06-16 15:41 51°20.133 2°53.628 18 357 13.9 101000 42
2011-06-16 15:42 51°19.95 2°53.525 8.5 359 13.9 101000 42
2011-06-16 15:43 51°19.768 2°53.42 6.1 357 13.9 101010 43
2011-06-16 15:44 51°19.584 2°53.31 19.8 356 13.9 101010 42
2011-06-16 15:45 51°19.402 2°53.199 16.3 355 13.9 101010 43
2011-06-16 15:46 51°19.216 2°53.087 15 355 13.9 101030 42
2011-06-16 15:47 51°19.037 2°52.98 16.8 359 13.9 101040 42
2011-06-16 15:48 51°18.855 2°52.872 14.8 357 14 101020 40
2011-06-16 15:49 51°18.669 2°52.79 15.7 359 13.9 101010 41
2011-06-16 15:50 51°18.475 2°52.747 16.4 358 13.9 101050 41
2011-06-16 15:51 51°18.281 2°52.701 12.7 358 13.9 101050 41
2011-06-16 15:52 51°18.087 2°52.647 16.3 357 13.9 101050 41
2011-06-16 15:53 51°17.893 2°52.599 17.4 358 14 101050 42
2011-06-16 15:54 51°17.7 2°52.541 15.3 356 14.1 101060 42
2011-06-16 15:55 51°17.505 2°52.487 12.8 360 14.1 101060 42
2011-06-16 15:56 51°17.307 2°52.503 12.9 6 14.1 101070 40
2011-06-16 15:57 51°17.11 2°52.562 13.5 11 14 101070 42
2011-06-16 15:58 51°16.918 2°52.657 10.9 5 14.1 101090 42
2011-06-16 15:59 51°16.725 2°52.75 10.3 7 14.2 101070 42
2011-06-16 16:00 51°16.533 2°52.865 12.5 16 14.1 101070 42
2011-06-16 16:01 51°16.353 2°53.023 6.3 17 14.1 101090 41
2011-06-16 16:02 51°16.178 2°53.201 10.8 13 14.2 101090 41
2011-06-16 16:03 51°15.997 2°53.356 13.8 17 14.3 101090 41
2011-06-16 16:04 51°15.807 2°53.482 11.3 12 14.4 101090 39
2011-06-16 16:05 51°15.625 2°53.639 12.2 16 14.5 101100 42
2011-06-16 16:06 51°15.462 2°53.843 12 18 14.5 101110 41
2011-06-16 16:07 51°15.31 2°54.069 6.3 20 14.5 101110 42
2011-06-16 16:08 51°15.154 2°54.288 6.3 17 14.6 101100 42
2011-06-16 16:09 51°14.993 2°54.5 13.1 13 14.6 101110 43
2011-06-16 16:10 51°14.831 2°54.703 7.4 14 14.5 101100 42
2011-06-16 16:11 51°14.66 2°54.889 7.5 15 14.4 101100 42
2011-06-16 16:12 51°14.482 2°55.052 16.4 18 14.3 101100 40
2011-06-16 16:13 51°14.317 2°55.232 13.5 8 14.4 101110 42
2011-06-16 16:14 51°14.171 2°55.38 5 7 14.4 101130 41
2011-06-16 16:15 51°14.029 2°55.496 6.1 356 14.4 101140 41
2011-06-16 16:16 51°13.929 2°55.559 6.6 344 14.4 101140 40
2011-06-16 16:17 51°13.827 2°55.627 4.5 9 14.4 101130 41
2011-06-16 16:18 51°13.744 2°55.731 4.9 6 14.4 101140 41
2011-06-16 16:19 51°13.694 2°55.833 6.6 38 14.5 101140 40
2011-06-16 16:20 51°13.657 2°55.919 9 31 14.5 101140 39
2011-06-16 16:21 51°13.639 2°56.004 6.5 43 14.6 101150 41
2011-06-16 16:24 51°13.636 2°56.02 6.3 12 14.7 101150 40
2011-06-16 16:25 51°13.636 2°56.019 12.2 38 14.7 101160 40
2011-06-16 16:26 51°13.636 2°56.017 8.7 36 14.7 101160 40
2011-06-16 16:27 51°13.636 2°56.018 4.7 19 14.7 101150 40
2011-06-16 16:28 51°13.636 2°56.017 10.7 41 14.7 101150 39
2011-06-16 16:29 51°13.637 2°56.017 16.8 26 14.8 101160 40
2011-06-16 16:30 51°13.636 2°56.018 14.5 39 14.8 101160 40
2011-06-16 16:31 51°13.636 2°56.018 8.5 40 14.8 101150 40